Regional Weather Roundup
Issued by NWS

Home | Current Version | Previous Version | Text Only | Print | Product List | Glossary On
Versions: 1 2 3 4 5 6 7 8 9 10 11 12 13 14 15 16 17 18 19 20 21 22 23 24 25 26 27 28 29 30 31 32 33 34 35 36 37 38 39 40 41 42 43 44 45 46 47 48 49 50
518
ASUS44 KJAN 181010
RWRMS

MISSISSIPPI HOURLY WEATHER ROUNDUP
NATIONAL WEATHER SERVICE JACKSON MS
500 AM CDT THU SEP 18 2014

NOTE: "FAIR: INDICATES FEW OR NO CLOUDS BELOW 12,000 FEET WITH NO
SIGNIFICANT WEATHER AND/OR OBSTRUCTIONS TO VISIBILITY.

MSZ001>002-007>008-010>013-018>021-025>028-034>036-181100-
NORTHWEST MISSISSIPPI

CITY           SKY/WX    TMP DP  RH WIND       PRES   REMARKS
CLARKSDALE     FAIR      68  68 100 CALM      29.91S
CLEVELAND      FAIR      73  70  91 SE5       29.89S
GREENWOOD      CLOUDY    70  66  87 NE3       29.90S
GREENVILLE     MOCLDY    73  69  87 SE5       29.88S
GRENADA        FAIR      68  64  88 CALM      29.91F
OLIVE BRANCH   CLEAR     64  64 100 NE3       29.94R
OXFORD         FAIR      66  64  94 SE3       29.94S
TUNICA         CLOUDY    64  64 100 CALM      29.92S FOG
$$

MSZ003>006-009-014>017-022>024-029>033-037>039-181100-
NORTHEAST MISSISSIPPI

CITY           SKY/WX    TMP DP  RH WIND       PRES   REMARKS
COLUMBUS AFB   PTCLDY    65  65 100 CALM      29.93S
CORINTH        PTSUNNY   63  61  94 CALM      29.94S
GOLDN TRIANGLE PTCLDY    64  59  82 CALM      29.93S
STARKVILLE     FAIR      63  63 100 CALM      29.93R FOG
TUPELO         MOCLDY    66  64  93 NE3       29.93S
$$

MSZ040-058-181100-
CENTRAL MISSISSIPPI

CITY           SKY/WX    TMP DP  RH WIND       PRES   REMARKS
JACKSON INTL   PTCLDY    72  67  84 SE5       29.91S
JACKSON HAWKNS PTCLDY    73  68  84 CALM      29.91S
MERIDIAN KEY   PTCLDY    67  65  93 CALM      29.92S
MERIDIAN NAS   MOCLDY    66  64  93 CALM      29.93R
RAYMOND        FAIR      70  64  83 CALM      29.91S
VICKSBURG      CLOUDY    71  69  93 CALM      29.90R
$$

MSZ059>079-181100-
SOUTH MISSISSIPPI

CITY           SKY/WX    TMP DP  RH WIND       PRES   REMARKS
BROOKHAVEN     FAIR      70  70 100 CALM      29.93S FOG
COLUMBIA       FAIR      70  68  94 CALM      29.90S
HATTIESBURG    CLEAR     72  70  93 N3        29.92R FOG
MCCOMB         MOCLDY    71  69  93 CALM      29.91S
NATCHEZ        MOCLDY    72  70  94 CALM      29.92R
PINE BELT      CLEAR     70  66  88 NE3       29.93R
$$

MSZ080>082-181100-
COASTAL MISSISSIPPI

CITY           SKY/WX    TMP DP  RH WIND       PRES   REMARKS
BILOXI         PTCLDY    76  73  92 CALM      29.89S
PASCAGOULA     PTCLDY    71  70  96 CALM      29.90R FOG
GULFPORT       PTCLDY    73  72  96 CALM      29.89R
$$



USA.gov is the U.S. government's official web portal to all federal, state and local government web resources and services.